Time,TemperatureF,DewpointF,PressureIn,WindDirection,WindDirectionDegrees,WindSpeedMPH,WindSpeedGustMPH,Humidity,HourlyPrecipIn,Conditions,Clouds,dailyrainin,SolarRadiationWatts/m^2,SoftwareType,DateUTC
2013-06-09 00:00:00,76.8,74.0,29.91,North,-999,0.0,0.0,91,0.00,,,-99.99,0,WeatherLink 5.4,2013-06-09 04:00:00,
2013-06-09 00:10:00,76.8,73.6,29.91,North,-999,0.0,0.0,90,0.00,,,-99.99,0,WeatherLink 5.4,2013-06-09 04:10:00,
2013-06-09 00:20:00,76.8,73.6,29.91,North,-999,0.0,0.0,90,0.00,,,-99.99,0,WeatherLink 5.4,2013-06-09 04:20:00,
2013-06-09 00:30:00,77.1,73.6,29.91,North,-999,0.0,0.0,89,0.00,,,-99.99,0,WeatherLink 5.4,2013-06-09 04:30:00,
2013-06-09 00:40:00,77.2,73.7,29.91,SSE,157,0.0,5.0,89,0.00,,,-99.99,0,WeatherLink 5.4,2013-06-09 04:40:00,
2013-06-09 00:50:00,77.1,73.3,29.90,SSE,157,1.0,6.0,88,0.00,,,-99.99,0,WeatherLink 5.4,2013-06-09 04:50:00,
2013-06-09 01:00:00,77.3,73.5,29.90,North,-999,0.0,0.0,88,0.00,,,-99.99,0,WeatherLink 5.4,2013-06-09 05:00:00,
2013-06-09 01:10:00,77.4,73.2,29.90,North,-999,0.0,0.0,87,0.00,,,-99.99,0,WeatherLink 5.4,2013-06-09 05:10:00,
2013-06-09 01:20:00,77.6,73.4,29.90,SSE,157,0.0,1.0,87,0.00,,,-99.99,0,WeatherLink 5.4,2013-06-09 05:20:00,
2013-06-09 01:30:00,77.6,73.1,29.89,SSE,157,0.0,5.0,86,0.00,,,-99.99,0,WeatherLink 5.4,2013-06-09 05:30:00,
2013-06-09 01:40:00,77.6,73.1,29.89,SSE,157,0.0,1.0,86,0.00,,,-99.99,0,WeatherLink 5.4,2013-06-09 05:40:00,
2013-06-09 01:50:00,77.6,73.1,29.89,SSE,157,0.0,3.0,86,0.00,,,-99.99,0,WeatherLink 5.4,2013-06-09 05:50:00,
2013-06-09 02:00:00,77.6,73.1,29.89,North,-999,0.0,0.0,86,0.00,,,-99.99,0,WeatherLink 5.4,2013-06-09 06:00:00,
2013-06-09 02:10:00,77.6,73.4,29.89,North,-999,0.0,0.0,87,0.00,,,-99.99,0,WeatherLink 5.4,2013-06-09 06:10:00,
2013-06-09 02:20:00,77.4,73.2,29.88,North,-999,0.0,0.0,87,0.00,,,-99.99,0,WeatherLink 5.4,2013-06-09 06:20:00,
2013-06-09 02:30:00,77.3,73.1,29.88,North,-999,0.0,0.0,87,0.00,,,-99.99,0,WeatherLink 5.4,2013-06-09 06:30:00,
2013-06-09 02:40:00,77.2,73.0,29.88,SSE,157,0.0,1.0,87,0.00,,,-99.99,0,WeatherLink 5.4,2013-06-09 06:40:00,
2013-06-09 02:50:00,77.2,73.0,29.88,North,-999,0.0,0.0,87,0.00,,,-99.99,0,WeatherLink 5.4,2013-06-09 06:50:00,
2013-06-09 03:00:00,77.2,73.0,29.88,North,-999,0.0,0.0,87,0.00,,,-99.99,0,WeatherLink 5.4,2013-06-09 07:00:00,
2013-06-09 03:10:00,77.0,72.8,29.88,North,-999,0.0,0.0,87,0.00,,,-99.99,0,WeatherLink 5.4,2013-06-09 07:10:00,
2013-06-09 03:20:00,76.9,72.7,29.88,North,-999,0.0,0.0,87,0.00,,,-99.99,0,WeatherLink 5.4,2013-06-09 07:20:00,
2013-06-09 03:30:00,76.8,73.0,29.87,North,-999,0.0,0.0,88,0.00,,,-99.99,0,WeatherLink 5.4,2013-06-09 07:30:00,
2013-06-09 03:40:00,76.7,72.9,29.87,North,-999,0.0,0.0,88,0.00,,,-99.99,0,WeatherLink 5.4,2013-06-09 07:40:00,
2013-06-09 03:50:00,76.6,73.1,29.87,SSE,157,0.0,1.0,89,0.00,,,-99.99,0,WeatherLink 5.4,2013-06-09 07:50:00,
2013-06-09 04:00:00,76.5,72.7,29.87,North,-999,0.0,0.0,88,0.00,,,-99.99,0,WeatherLink 5.4,2013-06-09 08:00:00,
2013-06-09 04:10:00,76.6,72.8,29.87,SSE,157,0.0,1.0,88,0.00,,,-99.99,0,WeatherLink 5.4,2013-06-09 08:10:00,
2013-06-09 04:20:00,76.7,72.9,29.87,SSE,157,0.0,1.0,88,0.00,,,-99.99,0,WeatherLink 5.4,2013-06-09 08:20:00,
2013-06-09 04:30:00,76.8,73.0,29.87,East,90,0.0,2.0,88,0.00,,,-99.99,0,WeatherLink 5.4,2013-06-09 08:30:00,
2013-06-09 04:40:00,76.8,73.0,29.87,East,90,0.0,1.0,88,0.00,,,-99.99,0,WeatherLink 5.4,2013-06-09 08:40:00,
2013-06-09 04:50:00,76.8,73.0,29.88,North,-999,0.0,0.0,88,0.00,,,-99.99,0,WeatherLink 5.4,2013-06-09 08:50:00,
2013-06-09 05:00:00,76.8,73.0,29.88,North,-999,0.0,0.0,88,0.00,,,-99.99,0,WeatherLink 5.4,2013-06-09 09:00:00,
2013-06-09 05:10:00,76.8,73.0,29.88,North,-999,0.0,0.0,88,0.00,,,-99.99,0,WeatherLink 5.4,2013-06-09 09:10:00,
2013-06-09 05:20:00,76.8,73.0,29.89,North,-999,0.0,0.0,88,0.00,,,-99.99,0,WeatherLink 5.4,2013-06-09 09:20:00,
2013-06-09 05:30:00,76.7,72.9,29.89,North,-999,0.0,0.0,88,0.00,,,-99.99,0,WeatherLink 5.4,2013-06-09 09:30:00,
2013-06-09 05:40:00,76.7,72.9,29.89,North,-999,0.0,0.0,88,0.00,,,-99.99,0,WeatherLink 5.4,2013-06-09 09:40:00,
2013-06-09 05:50:00,76.7,72.9,29.89,North,-999,0.0,0.0,88,0.00,,,-99.99,0,WeatherLink 5.4,2013-06-09 09:50:00,
2013-06-09 06:00:00,76.8,73.0,29.89,North,-999,0.0,0.0,88,0.00,,,-99.99,4,WeatherLink 5.4,2013-06-09 10:00:00,
2013-06-09 06:10:00,76.8,73.0,29.89,North,-999,0.0,0.0,88,0.00,,,-99.99,14,WeatherLink 5.4,2013-06-09 10:10:00,
2013-06-09 06:25:00,76.8,73.0,29.89,North,-999,0.0,0.0,88,0.00,,,-99.99,24,WeatherLink 5.4,2013-06-09 10:25:00,
2013-06-09 06:30:00,76.8,73.0,29.90,North,-999,0.0,0.0,88,0.00,,,-99.99,37,WeatherLink 5.4,2013-06-09 10:30:00,
2013-06-09 06:35:00,76.8,73.0,29.90,North,-999,0.0,0.0,88,0.00,,,-99.99,37,WeatherLink 5.4,2013-06-09 10:35:00,
2013-06-09 06:40:00,76.8,73.0,29.90,North,-999,0.0,0.0,88,0.00,,,-99.99,54,WeatherLink 5.4,2013-06-09 10:40:00,
2013-06-09 06:45:00,76.8,73.0,29.90,North,-999,0.0,0.0,88,0.00,,,-99.99,54,WeatherLink 5.4,2013-06-09 10:45:00,
2013-06-09 06:51:00,77.0,73.5,29.91,North,-999,0.0,0.0,89,0.00,,,-99.99,74,WeatherLink 5.4,2013-06-09 10:51:00,
2013-06-09 06:57:00,77.0,73.5,29.91,North,-999,0.0,0.0,89,0.00,,,-99.99,74,WeatherLink 5.4,2013-06-09 10:57:00,
2013-06-09 07:03:00,77.1,73.6,29.91,North,-999,0.0,0.0,89,0.00,,,-99.99,90,WeatherLink 5.4,2013-06-09 11:03:00,
2013-06-09 07:09:00,77.1,73.6,29.91,North,-999,0.0,0.0,89,0.00,,,-99.99,90,WeatherLink 5.4,2013-06-09 11:09:00,
2013-06-09 07:15:00,77.2,73.7,29.91,North,-999,0.0,0.0,89,0.00,,,-99.99,124,WeatherLink 5.4,2013-06-09 11:15:00,
2013-06-09 07:21:00,77.4,73.6,29.91,North,-999,0.0,0.0,88,0.00,,,-99.99,161,WeatherLink 5.4,2013-06-09 11:21:00,
2013-06-09 07:27:00,77.4,73.6,29.91,North,-999,0.0,0.0,88,0.00,,,-99.99,161,WeatherLink 5.4,2013-06-09 11:27:00,
2013-06-09 07:33:00,77.7,73.5,29.91,North,-999,0.0,0.0,87,0.00,,,-99.99,176,WeatherLink 5.4,2013-06-09 11:33:00,
2013-06-09 07:39:00,77.7,73.5,29.91,North,-999,0.0,0.0,87,0.00,,,-99.99,176,WeatherLink 5.4,2013-06-09 11:39:00,
2013-06-09 07:47:00,78.1,73.2,29.91,ESE,112,1.0,6.0,85,0.00,,,-99.99,199,WeatherLink 5.4,2013-06-09 11:47:00,
2013-06-09 07:52:00,78.6,73.4,29.91,East,90,2.0,10.0,84,0.00,,,-99.99,228,WeatherLink 5.4,2013-06-09 11:52:00,
2013-06-09 07:58:00,78.6,73.4,29.91,East,90,2.0,10.0,84,0.00,,,-99.99,228,WeatherLink 5.4,2013-06-09 11:58:00,
2013-06-09 08:03:00,79.0,73.4,29.91,ESE,112,1.0,7.0,83,0.00,,,-99.99,309,WeatherLink 5.4,2013-06-09 12:03:00,
2013-06-09 08:08:00,79.0,73.4,29.91,ESE,112,1.0,7.0,83,0.00,,,-99.99,309,WeatherLink 5.4,2013-06-09 12:08:00,
2013-06-09 08:14:00,79.7,73.3,29.91,ESE,112,0.0,6.0,81,0.00,,,-99.99,363,WeatherLink 5.4,2013-06-09 12:14:00,
2013-06-09 08:20:00,80.3,73.6,29.91,ESE,112,3.0,10.0,80,0.00,,,-99.99,388,WeatherLink 5.4,2013-06-09 12:20:00,
2013-06-09 08:26:00,80.3,73.6,29.91,ESE,112,3.0,10.0,80,0.00,,,-99.99,388,WeatherLink 5.4,2013-06-09 12:26:00,
2013-06-09 08:30:00,81.0,73.5,29.92,ESE,112,4.0,10.0,78,0.00,,,-99.99,418,WeatherLink 5.4,2013-06-09 12:30:00,
2013-06-09 08:32:00,81.0,73.5,29.92,ESE,112,4.0,10.0,78,0.00,,,-99.99,418,WeatherLink 5.4,2013-06-09 12:32:00,
2013-06-09 08:40:00,81.5,73.2,29.92,East,90,3.0,8.0,76,0.00,,,-99.99,425,WeatherLink 5.4,2013-06-09 12:40:00,
2013-06-09 08:50:00,81.9,73.2,29.92,East,90,4.0,11.0,75,0.00,,,-99.99,433,WeatherLink 5.4,2013-06-09 12:50:00,
2013-06-09 09:00:00,82.2,73.1,29.92,East,90,4.0,12.0,74,0.00,,,-99.99,516,WeatherLink 5.4,2013-06-09 13:00:00,
2013-06-09 09:10:00,82.5,73.4,29.92,ESE,112,2.0,11.0,74,0.00,,,-99.99,452,WeatherLink 5.4,2013-06-09 13:10:00,
2013-06-09 09:20:00,82.9,73.4,29.93,ESE,112,1.0,6.0,73,0.00,,,-99.99,304,WeatherLink 5.4,2013-06-09 13:20:00,
2013-06-09 09:30:00,83.1,73.1,29.93,ESE,112,0.0,5.0,72,0.00,,,-99.99,392,WeatherLink 5.4,2013-06-09 13:30:00,
2013-06-09 09:40:00,83.7,72.4,29.93,East,90,1.0,7.0,69,0.00,,,-99.99,673,WeatherLink 5.4,2013-06-09 13:40:00,
2013-06-09 09:47:00,83.7,72.4,29.93,East,90,1.0,7.0,69,0.00,,,-99.99,673,WeatherLink 5.4,2013-06-09 13:47:00,
2013-06-09 09:52:00,84.3,72.6,29.93,ESE,112,2.0,10.0,68,0.00,,,-99.99,704,WeatherLink 5.4,2013-06-09 13:52:00,
2013-06-09 09:58:00,84.3,72.6,29.93,ESE,112,2.0,10.0,68,0.00,,,-99.99,704,WeatherLink 5.4,2013-06-09 13:58:00,
2013-06-09 10:03:00,84.8,72.2,29.93,East,90,3.0,10.0,66,0.00,,,-99.99,851,WeatherLink 5.4,2013-06-09 14:03:00,
2013-06-09 10:09:00,84.8,72.2,29.93,East,90,3.0,10.0,66,0.00,,,-99.99,851,WeatherLink 5.4,2013-06-09 14:09:00,
2013-06-09 10:15:00,85.1,72.0,29.93,East,90,2.0,9.0,65,0.00,,,-99.99,357,WeatherLink 5.4,2013-06-09 14:15:00,
2013-06-09 10:22:00,85.3,71.7,29.93,ESE,112,0.0,5.0,64,0.00,,,-99.99,398,WeatherLink 5.4,2013-06-09 14:22:00,
2013-06-09 10:28:00,85.3,71.7,29.93,ESE,112,0.0,5.0,64,0.00,,,-99.99,398,WeatherLink 5.4,2013-06-09 14:28:00,
2013-06-09 10:33:00,85.4,72.3,29.94,East,90,0.0,6.0,65,0.00,,,-99.99,240,WeatherLink 5.4,2013-06-09 14:33:00,
2013-06-09 10:38:00,85.4,72.3,29.94,East,90,0.0,6.0,65,0.00,,,-99.99,240,WeatherLink 5.4,2013-06-09 14:38:00,
2013-06-09 10:40:00,85.7,72.1,29.94,SE,135,3.0,11.0,64,0.00,,,-99.99,289,WeatherLink 5.4,2013-06-09 14:40:00,
2013-06-09 10:50:00,86.2,72.1,29.94,SE,135,1.0,9.0,63,0.00,,,-99.99,437,WeatherLink 5.4,2013-06-09 14:50:00,
2013-06-09 11:00:00,86.6,71.5,29.93,SE,135,1.0,8.0,61,0.00,,,-99.99,806,WeatherLink 5.4,2013-06-09 15:00:00,
2013-06-09 11:10:00,87.5,69.3,29.93,ESE,112,3.0,14.0,55,0.00,,,-99.99,972,WeatherLink 5.4,2013-06-09 15:10:00,
2013-06-09 11:22:00,87.8,69.6,29.93,SE,135,3.0,12.0,55,0.00,,,-99.99,972,WeatherLink 5.4,2013-06-09 15:22:00,
2013-06-09 11:27:00,87.8,69.6,29.93,SE,135,3.0,12.0,55,0.00,,,-99.99,972,WeatherLink 5.4,2013-06-09 15:27:00,
2013-06-09 11:33:00,88.1,67.7,29.93,ESE,112,5.0,12.0,51,0.00,,,-99.99,989,WeatherLink 5.4,2013-06-09 15:33:00,
2013-06-09 11:38:00,88.1,67.7,29.93,ESE,112,5.0,12.0,51,0.00,,,-99.99,989,WeatherLink 5.4,2013-06-09 15:38:00,
2013-06-09 11:44:00,88.5,68.1,29.93,ESE,112,2.0,11.0,51,0.00,,,-99.99,999,WeatherLink 5.4,2013-06-09 15:44:00,
2013-06-09 11:50:00,88.6,69.3,29.92,ESE,112,3.0,13.0,53,0.00,,,-99.99,945,WeatherLink 5.4,2013-06-09 15:50:00,
2013-06-09 11:56:00,88.6,69.3,29.92,ESE,112,3.0,13.0,53,0.00,,,-99.99,945,WeatherLink 5.4,2013-06-09 15:56:00,
2013-06-09 12:03:00,88.8,69.5,29.92,ESE,112,1.0,10.0,53,0.00,,,-99.99,826,WeatherLink 5.4,2013-06-09 16:03:00,
2013-06-09 12:08:00,88.8,69.5,29.92,ESE,112,1.0,10.0,53,0.00,,,-99.99,826,WeatherLink 5.4,2013-06-09 16:08:00,
2013-06-09 12:10:00,88.6,68.2,29.92,ESE,112,2.0,9.0,51,0.00,,,-99.99,928,WeatherLink 5.4,2013-06-09 16:10:00,
2013-06-09 12:20:00,88.6,65.8,29.92,ESE,112,3.0,13.0,47,0.00,,,-99.99,1081,WeatherLink 5.4,2013-06-09 16:20:00,
2013-06-09 12:30:00,88.9,66.1,29.92,ESE,112,2.0,12.0,47,0.00,,,-99.99,1010,WeatherLink 5.4,2013-06-09 16:30:00,
2013-06-09 12:46:00,89.4,71.6,29.92,East,90,1.0,11.0,56,0.00,,,-99.99,988,WeatherLink 5.4,2013-06-09 16:46:00,
2013-06-09 12:52:00,88.7,74.0,29.92,East,90,1.0,10.0,62,0.00,,,-99.99,613,WeatherLink 5.4,2013-06-09 16:52:00,
2013-06-09 12:58:00,88.7,74.0,29.92,East,90,1.0,10.0,62,0.00,,,-99.99,613,WeatherLink 5.4,2013-06-09 16:58:00,
2013-06-09 13:04:00,87.8,73.6,29.92,ENE,67,2.0,16.0,63,0.00,,,-99.99,687,WeatherLink 5.4,2013-06-09 17:04:00,
2013-06-09 13:09:00,87.8,73.6,29.92,ENE,67,2.0,16.0,63,0.00,,,-99.99,687,WeatherLink 5.4,2013-06-09 17:09:00,
2013-06-09 13:15:00,87.3,74.1,29.92,ENE,67,1.0,10.0,65,0.00,,,-99.99,912,WeatherLink 5.4,2013-06-09 17:15:00,
2013-06-09 13:21:00,87.3,74.5,29.92,East,90,1.0,11.0,66,0.00,,,-99.99,587,WeatherLink 5.4,2013-06-09 17:21:00,
2013-06-09 13:26:00,87.3,74.5,29.92,East,90,1.0,11.0,66,0.00,,,-99.99,587,WeatherLink 5.4,2013-06-09 17:26:00,
2013-06-09 13:32:00,86.5,74.7,29.91,ENE,67,2.0,16.0,68,0.00,,,-99.99,265,WeatherLink 5.4,2013-06-09 17:32:00,
2013-06-09 13:38:00,86.5,74.7,29.91,ENE,67,2.0,16.0,68,0.00,,,-99.99,265,WeatherLink 5.4,2013-06-09 17:38:00,
2013-06-09 13:44:00,86.0,74.6,29.91,NE,45,0.0,7.0,69,0.00,,,-99.99,227,WeatherLink 5.4,2013-06-09 17:44:00,
2013-06-09 13:50:00,85.9,74.1,29.91,ENE,67,3.0,13.0,68,0.00,,,-99.99,615,WeatherLink 5.4,2013-06-09 17:50:00,
2013-06-09 13:55:00,85.9,74.1,29.91,ENE,67,3.0,13.0,68,0.00,,,-99.99,615,WeatherLink 5.4,2013-06-09 17:55:00,
2013-06-09 14:01:00,85.8,74.4,29.90,East,90,4.0,13.0,69,0.00,,,-99.99,366,WeatherLink 5.4,2013-06-09 18:01:00,
2013-06-09 14:07:00,85.8,74.4,29.90,East,90,4.0,13.0,69,0.00,,,-99.99,366,WeatherLink 5.4,2013-06-09 18:07:00,
2013-06-09 14:12:00,85.7,73.9,29.90,East,90,4.0,13.0,68,0.00,,,-99.99,303,WeatherLink 5.4,2013-06-09 18:12:00,
2013-06-09 14:19:00,85.7,73.9,29.90,East,90,4.0,13.0,68,0.00,,,-99.99,303,WeatherLink 5.4,2013-06-09 18:19:00,
2013-06-09 14:24:00,85.5,73.7,29.90,ENE,67,2.0,14.0,68,0.00,,,-99.99,419,WeatherLink 5.4,2013-06-09 18:24:00,
2013-06-09 14:29:00,85.5,74.2,29.89,ENE,67,1.0,11.0,69,0.00,,,-99.99,332,WeatherLink 5.4,2013-06-09 18:29:00,
2013-06-09 14:35:00,85.5,74.2,29.89,ENE,67,1.0,11.0,69,0.00,,,-99.99,332,WeatherLink 5.4,2013-06-09 18:35:00,
2013-06-09 14:41:00,85.8,74.4,29.89,East,90,3.0,16.0,69,0.00,,,-99.99,530,WeatherLink 5.4,2013-06-09 18:41:00,
2013-06-09 14:46:00,85.8,74.4,29.89,East,90,3.0,16.0,69,0.00,,,-99.99,530,WeatherLink 5.4,2013-06-09 18:46:00,
2013-06-09 14:51:00,85.8,74.0,29.89,East,90,5.0,18.0,68,0.00,,,-99.99,913,WeatherLink 5.4,2013-06-09 18:51:00,
2013-06-09 14:57:00,85.8,74.0,29.89,East,90,5.0,18.0,68,0.00,,,-99.99,913,WeatherLink 5.4,2013-06-09 18:57:00,
2013-06-09 15:03:00,85.6,74.3,29.89,East,90,3.0,13.0,69,0.00,,,-99.99,366,WeatherLink 5.4,2013-06-09 19:03:00,
2013-06-09 15:09:00,85.6,74.3,29.89,East,90,3.0,13.0,69,0.00,,,-99.99,366,WeatherLink 5.4,2013-06-09 19:09:00,
2013-06-09 15:15:00,85.5,74.6,29.89,East,90,3.0,13.0,70,0.00,,,-99.99,596,WeatherLink 5.4,2013-06-09 19:15:00,
2013-06-09 15:21:00,85.6,74.3,29.88,ENE,67,1.0,12.0,69,0.00,,,-99.99,795,WeatherLink 5.4,2013-06-09 19:21:00,
2013-06-09 15:26:00,85.6,74.3,29.88,ENE,67,1.0,12.0,69,0.00,,,-99.99,795,WeatherLink 5.4,2013-06-09 19:26:00,
2013-06-09 15:31:00,85.7,73.9,29.88,East,90,2.0,14.0,68,0.00,,,-99.99,513,WeatherLink 5.4,2013-06-09 19:31:00,
2013-06-09 15:37:00,85.7,73.9,29.88,East,90,2.0,14.0,68,0.00,,,-99.99,513,WeatherLink 5.4,2013-06-09 19:37:00,
2013-06-09 15:42:00,85.9,73.7,29.88,East,90,2.0,11.0,67,0.00,,,-99.99,695,WeatherLink 5.4,2013-06-09 19:42:00,
2013-06-09 15:48:00,85.9,73.7,29.88,East,90,2.0,11.0,67,0.00,,,-99.99,695,WeatherLink 5.4,2013-06-09 19:48:00,
2013-06-09 15:54:00,86.1,74.3,29.87,East,90,1.0,13.0,68,0.00,,,-99.99,318,WeatherLink 5.4,2013-06-09 19:54:00,
2013-06-09 15:59:00,86.1,74.3,29.87,East,90,1.0,13.0,68,0.00,,,-99.99,318,WeatherLink 5.4,2013-06-09 19:59:00,
2013-06-09 16:05:00,86.1,73.9,29.87,East,90,5.0,17.0,67,0.00,,,-99.99,412,WeatherLink 5.4,2013-06-09 20:05:00,
2013-06-09 16:11:00,86.1,74.3,29.87,East,90,1.0,8.0,68,0.00,,,-99.99,618,WeatherLink 5.4,2013-06-09 20:11:00,
2013-06-09 16:17:00,86.1,74.3,29.87,East,90,1.0,8.0,68,0.00,,,-99.99,618,WeatherLink 5.4,2013-06-09 20:17:00,
2013-06-09 16:22:00,86.1,73.9,29.87,ENE,67,2.0,10.0,67,0.00,,,-99.99,326,WeatherLink 5.4,2013-06-09 20:22:00,
2013-06-09 16:28:00,86.1,73.9,29.87,ENE,67,2.0,10.0,67,0.00,,,-99.99,326,WeatherLink 5.4,2013-06-09 20:28:00,
2013-06-09 16:33:00,86.0,73.3,29.87,East,90,3.0,12.0,66,0.00,,,-99.99,418,WeatherLink 5.4,2013-06-09 20:33:00,
2013-06-09 16:39:00,86.0,73.3,29.87,East,90,3.0,12.0,66,0.00,,,-99.99,418,WeatherLink 5.4,2013-06-09 20:39:00,
2013-06-09 16:45:00,85.8,74.0,29.87,East,90,4.0,11.0,68,0.00,,,-99.99,262,WeatherLink 5.4,2013-06-09 20:45:00,
2013-06-09 16:52:00,85.5,73.7,29.86,ENE,67,2.0,9.0,68,0.00,,,-99.99,304,WeatherLink 5.4,2013-06-09 20:52:00,
2013-06-09 16:58:00,85.5,73.7,29.86,ENE,67,2.0,9.0,68,0.00,,,-99.99,304,WeatherLink 5.4,2013-06-09 20:58:00,
2013-06-09 17:04:00,85.6,73.8,29.86,East,90,1.0,7.0,68,0.00,,,-99.99,287,WeatherLink 5.4,2013-06-09 21:04:00,
2013-06-09 17:10:00,85.3,74.4,29.86,ENE,67,1.0,11.0,70,0.00,,,-99.99,222,WeatherLink 5.4,2013-06-09 21:10:00,
2013-06-09 17:16:00,85.3,74.4,29.86,ENE,67,1.0,11.0,70,0.00,,,-99.99,222,WeatherLink 5.4,2013-06-09 21:16:00,
2013-06-09 17:21:00,84.6,74.6,29.87,ENE,67,2.0,12.0,72,0.00,,,-99.99,218,WeatherLink 5.4,2013-06-09 21:21:00,
2013-06-09 17:27:00,84.6,74.6,29.87,ENE,67,2.0,12.0,72,0.00,,,-99.99,218,WeatherLink 5.4,2013-06-09 21:27:00,
2013-06-09 17:33:00,84.1,74.5,29.87,East,90,2.0,13.0,73,0.00,,,-99.99,133,WeatherLink 5.4,2013-06-09 21:33:00,
2013-06-09 17:39:00,84.1,74.5,29.87,East,90,2.0,13.0,73,0.00,,,-99.99,133,WeatherLink 5.4,2013-06-09 21:39:00,
2013-06-09 17:44:00,83.8,74.6,29.87,East,90,2.0,13.0,74,0.00,,,-99.99,113,WeatherLink 5.4,2013-06-09 21:44:00,
2013-06-09 17:50:00,83.4,74.2,29.87,ENE,67,1.0,8.0,74,0.00,,,-99.99,108,WeatherLink 5.4,2013-06-09 21:50:00,
2013-06-09 17:56:00,83.4,74.2,29.87,ENE,67,1.0,8.0,74,0.00,,,-99.99,108,WeatherLink 5.4,2013-06-09 21:56:00,
2013-06-09 18:01:00,83.3,74.1,29.87,ENE,67,1.0,11.0,74,0.00,,,-99.99,91,WeatherLink 5.4,2013-06-09 22:01:00,
2013-06-09 18:07:00,83.3,74.1,29.87,ENE,67,1.0,11.0,74,0.00,,,-99.99,91,WeatherLink 5.4,2013-06-09 22:07:00,
2013-06-09 18:12:00,83.1,73.9,29.87,East,90,1.0,8.0,74,0.00,,,-99.99,78,WeatherLink 5.4,2013-06-09 22:12:00,
2013-06-09 18:18:00,83.1,73.9,29.87,East,90,1.0,8.0,74,0.00,,,-99.99,78,WeatherLink 5.4,2013-06-09 22:18:00,
2013-06-09 18:23:00,83.0,74.3,29.88,East,90,0.0,8.0,75,0.00,,,-99.99,71,WeatherLink 5.4,2013-06-09 22:23:00,
2013-06-09 18:30:00,82.9,73.8,29.88,ENE,67,1.0,7.0,74,0.00,,,-99.99,55,WeatherLink 5.4,2013-06-09 22:30:00,
2013-06-09 18:35:00,82.9,73.8,29.88,ENE,67,1.0,7.0,74,0.00,,,-99.99,55,WeatherLink 5.4,2013-06-09 22:35:00,
2013-06-09 18:40:00,82.6,73.9,29.88,ENE,67,1.0,8.0,75,0.00,,,-99.99,36,WeatherLink 5.4,2013-06-09 22:40:00,
2013-06-09 18:45:00,82.6,73.9,29.88,ENE,67,1.0,8.0,75,0.00,,,-99.99,36,WeatherLink 5.4,2013-06-09 22:45:00,
2013-06-09 18:51:00,82.3,74.0,29.88,ENE,67,2.0,12.0,76,0.00,,,-99.99,21,WeatherLink 5.4,2013-06-09 22:51:00,
2013-06-09 18:56:00,82.3,74.0,29.88,ENE,67,2.0,12.0,76,0.00,,,-99.99,21,WeatherLink 5.4,2013-06-09 22:56:00,
2013-06-09 19:01:00,81.9,73.6,29.89,East,90,2.0,10.0,76,0.00,,,-99.99,11,WeatherLink 5.4,2013-06-09 23:01:00,
2013-06-09 19:07:00,81.9,73.6,29.89,East,90,2.0,10.0,76,0.00,,,-99.99,11,WeatherLink 5.4,2013-06-09 23:07:00,
2013-06-09 19:12:00,81.8,73.9,29.89,East,90,1.0,10.0,77,0.00,,,-99.99,1,WeatherLink 5.4,2013-06-09 23:12:00,
2013-06-09 19:17:00,81.8,73.9,29.89,East,90,1.0,10.0,77,0.00,,,-99.99,1,WeatherLink 5.4,2013-06-09 23:17:00,
2013-06-09 19:23:00,81.6,73.7,29.89,East,90,1.0,8.0,77,0.00,,,-99.99,0,WeatherLink 5.4,2013-06-09 23:23:00,
2013-06-09 19:29:00,81.6,73.7,29.89,East,90,1.0,8.0,77,0.00,,,-99.99,0,WeatherLink 5.4,2013-06-09 23:29:00,
2013-06-09 19:34:00,81.4,73.9,29.89,East,90,3.0,12.0,78,0.00,,,-99.99,0,WeatherLink 5.4,2013-06-09 23:34:00,
2013-06-09 19:40:00,81.2,73.3,29.89,ENE,67,2.0,10.0,77,0.00,,,-99.99,0,WeatherLink 5.4,2013-06-09 23:40:00,
2013-06-09 19:46:00,81.2,73.3,29.89,ENE,67,2.0,10.0,77,0.00,,,-99.99,0,WeatherLink 5.4,2013-06-09 23:46:00,
2013-06-09 19:52:00,81.1,73.2,29.90,East,90,2.0,11.0,77,0.00,,,-99.99,0,WeatherLink 5.4,2013-06-09 23:52:00,
2013-06-09 19:58:00,81.1,73.2,29.90,East,90,2.0,11.0,77,0.00,,,-99.99,0,WeatherLink 5.4,2013-06-09 23:58:00,
2013-06-09 20:04:00,81.1,73.6,29.91,East,90,3.0,11.0,78,0.00,,,-99.99,0,WeatherLink 5.4,2013-06-10 00:04:00,
2013-06-09 20:09:00,81.1,73.6,29.91,East,90,3.0,11.0,78,0.00,,,-99.99,0,WeatherLink 5.4,2013-06-10 00:09:00,
2013-06-09 20:15:00,81.1,73.6,29.91,East,90,2.0,9.0,78,0.00,,,-99.99,0,WeatherLink 5.4,2013-06-10 00:15:00,
2013-06-09 20:22:00,81.1,73.6,29.91,East,90,1.0,7.0,78,0.00,,,-99.99,0,WeatherLink 5.4,2013-06-10 00:22:00,
2013-06-09 20:28:00,81.1,73.6,29.91,East,90,1.0,7.0,78,0.00,,,-99.99,0,WeatherLink 5.4,2013-06-10 00:28:00,
2013-06-09 20:33:00,81.1,74.0,29.91,East,90,1.0,7.0,79,0.00,,,-99.99,0,WeatherLink 5.4,2013-06-10 00:33:00,
2013-06-09 20:38:00,81.1,74.0,29.91,East,90,1.0,7.0,79,0.00,,,-99.99,0,WeatherLink 5.4,2013-06-10 00:38:00,
2013-06-09 20:43:00,81.1,74.0,29.91,East,90,0.0,5.0,79,0.00,,,-99.99,0,WeatherLink 5.4,2013-06-10 00:43:00,
2013-06-09 20:48:00,81.1,74.0,29.91,East,90,0.0,5.0,79,0.00,,,-99.99,0,WeatherLink 5.4,2013-06-10 00:48:00,
2013-06-09 20:54:00,80.8,73.7,29.91,East,90,2.0,13.0,79,0.00,,,-99.99,0,WeatherLink 5.4,2013-06-10 00:54:00,
2013-06-09 20:59:00,80.8,73.7,29.91,East,90,2.0,13.0,79,0.00,,,-99.99,0,WeatherLink 5.4,2013-06-10 00:59:00,
2013-06-09 21:04:00,80.7,73.6,29.91,East,90,3.0,11.0,79,0.00,,,-99.99,0,WeatherLink 5.4,2013-06-10 01:04:00,
2013-06-09 21:10:00,80.6,73.5,29.91,East,90,2.0,12.0,79,0.00,,,-99.99,0,WeatherLink 5.4,2013-06-10 01:10:00,
2013-06-09 21:16:00,80.6,73.5,29.91,East,90,2.0,12.0,79,0.00,,,-99.99,0,WeatherLink 5.4,2013-06-10 01:16:00,
2013-06-09 21:21:00,80.5,73.8,29.91,East,90,0.0,6.0,80,0.00,,,-99.99,0,WeatherLink 5.4,2013-06-10 01:21:00,
2013-06-09 21:27:00,80.5,73.8,29.91,East,90,0.0,6.0,80,0.00,,,-99.99,0,WeatherLink 5.4,2013-06-10 01:27:00,
2013-06-09 21:33:00,80.4,73.3,29.92,East,90,2.0,9.0,79,0.00,,,-99.99,0,WeatherLink 5.4,2013-06-10 01:33:00,
2013-06-09 21:39:00,80.4,73.3,29.92,East,90,2.0,9.0,79,0.00,,,-99.99,0,WeatherLink 5.4,2013-06-10 01:39:00,
2013-06-09 21:45:00,80.3,73.2,29.92,ENE,67,1.0,8.0,79,0.00,,,-99.99,0,WeatherLink 5.4,2013-06-10 01:45:00,
2013-06-09 21:50:00,80.3,73.2,29.92,East,90,2.0,9.0,79,0.00,,,-99.99,0,WeatherLink 5.4,2013-06-10 01:50:00,
2013-06-09 21:56:00,80.3,73.2,29.92,East,90,2.0,9.0,79,0.00,,,-99.99,0,WeatherLink 5.4,2013-06-10 01:56:00,
2013-06-09 22:02:00,80.3,73.2,29.92,East,90,1.0,7.0,79,0.00,,,-99.99,0,WeatherLink 5.4,2013-06-10 02:02:00,
2013-06-09 22:07:00,80.3,73.2,29.92,East,90,1.0,7.0,79,0.00,,,-99.99,0,WeatherLink 5.4,2013-06-10 02:07:00,
2013-06-09 22:12:00,80.3,73.2,29.92,NE,45,0.0,7.0,79,0.00,,,-99.99,0,WeatherLink 5.4,2013-06-10 02:12:00,
2013-06-09 22:19:00,80.3,73.2,29.92,NE,45,0.0,7.0,79,0.00,,,-99.99,0,WeatherLink 5.4,2013-06-10 02:19:00,
2013-06-09 22:24:00,80.3,73.2,29.93,ENE,67,1.0,7.0,79,0.00,,,-99.99,0,WeatherLink 5.4,2013-06-10 02:24:00,
2013-06-09 22:29:00,80.3,73.2,29.93,East,90,1.0,7.0,79,0.00,,,-99.99,0,WeatherLink 5.4,2013-06-10 02:29:00,
2013-06-09 22:34:00,80.3,73.2,29.93,East,90,1.0,7.0,79,0.00,,,-99.99,0,WeatherLink 5.4,2013-06-10 02:34:00,
2013-06-09 22:39:00,80.3,73.2,29.93,East,90,1.0,7.0,79,0.00,,,-99.99,0,WeatherLink 5.4,2013-06-10 02:39:00,
2013-06-09 22:45:00,80.3,73.2,29.93,East,90,1.0,7.0,79,0.00,,,-99.99,0,WeatherLink 5.4,2013-06-10 02:45:00,
2013-06-09 22:51:00,80.3,73.2,29.93,ESE,112,0.0,1.0,79,0.00,,,-99.99,0,WeatherLink 5.4,2013-06-10 02:51:00,
2013-06-09 22:56:00,80.3,73.2,29.93,ESE,112,0.0,1.0,79,0.00,,,-99.99,0,WeatherLink 5.4,2013-06-10 02:56:00,
2013-06-09 23:01:00,80.3,73.2,29.93,North,-999,0.0,0.0,79,0.00,,,-99.99,0,WeatherLink 5.4,2013-06-10 03:01:00,
2013-06-09 23:07:00,80.3,73.2,29.93,North,-999,0.0,0.0,79,0.00,,,-99.99,0,WeatherLink 5.4,2013-06-10 03:07:00,
2013-06-09 23:13:00,80.3,73.6,29.93,ESE,112,1.0,6.0,80,0.00,,,-99.99,0,WeatherLink 5.4,2013-06-10 03:13:00,
2013-06-09 23:18:00,80.3,73.6,29.93,ESE,112,1.0,6.0,80,0.00,,,-99.99,0,WeatherLink 5.4,2013-06-10 03:18:00,
2013-06-09 23:23:00,80.3,73.6,29.93,ESE,112,0.0,7.0,80,0.00,,,-99.99,0,WeatherLink 5.4,2013-06-10 03:23:00,
2013-06-09 23:29:00,80.1,74.1,29.93,East,90,0.0,7.0,82,0.00,,,-99.99,0,WeatherLink 5.4,2013-06-10 03:29:00,
2013-06-09 23:34:00,80.1,74.1,29.93,East,90,0.0,7.0,82,0.00,,,-99.99,0,WeatherLink 5.4,2013-06-10 03:34:00,
2013-06-09 23:40:00,80.0,74.4,29.93,North,-999,0.0,0.0,83,0.00,,,-99.99,0,WeatherLink 5.4,2013-06-10 03:40:00,
2013-06-09 23:45:00,80.0,74.4,29.93,North,-999,0.0,0.0,83,0.00,,,-99.99,0,WeatherLink 5.4,2013-06-10 03:45:00,
2013-06-09 23:50:00,79.8,74.5,29.92,East,90,0.0,6.0,84,0.00,,,-99.99,0,WeatherLink 5.4,2013-06-10 03:50:00,
2013-06-09 23:55:00,79.8,74.5,29.92,East,90,0.0,6.0,84,0.00,,,-99.99,0,WeatherLink 5.4,2013-06-10 03:55:00,